GW3852 Weather Reports


time (UTC)temp
F
wind
direction
speed
knots
gust
knots
rain 1hr
in
rain 24hr
in
rain mn
in
humidity
%
barometer
mb
20260506051010 66 197 0.9 2.6 0.00 0.00 0.00 61 1014.1
20260506050505 66 246 0.0 1.7 0.00 0.00 0.00 60 1014.1
20260506045007 66 161 1.7 4.3 0.00 0.00 0.00 59 1013.7
20260506044511 66 182 1.7 6.1 0.00 0.00 0.00 58 1013.5
20260506044003 66 192 3.5 6.1 0.00 0.00 0.00 58 1013.5
20260506043507 66 197 2.6 4.3 0.00 0.00 0.00 58 1013.6
20260506043008 67 178 1.7 3.5 0.00 0.00 0.00 57 1014.0
20260506042507 67 218 1.7 3.5 0.00 0.00 0.00 57 1014.3
20260506042009 67 182 1.7 3.5 0.00 0.00 0.00 56 1014.0
20260506041515 67 196 1.7 4.3 0.00 0.00 0.00 56 1014.1
20260506041002 67 204 1.7 5.2 0.00 0.00 0.00 55 1014.2
20260506040506 67 170 1.7 5.2 0.00 0.00 0.00 55 1013.9
20260506040009 68 194 2.6 7.0 0.00 0.00 0.00 54 1013.8
20260506035507 68 213 3.5 7.0 0.00 0.00 0.00 54 1013.8
20260506035007 68 190 1.7 4.3 0.00 0.00 0.00 55 1013.9
20260506034520 68 196 1.7 4.3 0.00 0.00 0.00 54 1014.0
20260506034009 68 192 1.7 5.2 0.00 0.00 0.00 53 1013.8
20260506033507 68 192 2.6 5.2 0.00 0.00 0.00 53 1013.7
20260506033021 68 165 0.9 5.2 0.00 0.00 0.00 53 1013.8
20260506032506 68 181 1.7 5.2 0.00 0.00 0.00 52 1014.0
20260506032003 68 167 1.7 6.1 0.00 0.00 0.00 52 1014.0
20260506031514 69 202 2.6 6.1 0.00 0.00 0.00 51 1013.9
20260506031004 69 213 2.6 6.1 0.00 0.00 0.00 51 1013.8
20260506030510 69 168 1.7 7.0 0.00 0.00 0.00 50 1013.8
20260506030019 69 196 3.5 7.0 0.00 0.00 0.00 50 1013.9
20260506025504 69 171 3.5 7.0 0.00 0.00 0.00 50 1013.9
20260506025006 69 209 2.6 5.2 0.00 0.00 0.00 50 1014.0
20260506024533 69 205 2.6 5.2 0.00 0.00 0.00 51 1014.1
20260506024008 69 202 2.6 5.2 0.00 0.00 0.00 50 1014.2
20260506023506 69 202 1.7 4.3 0.00 0.00 0.00 51 1014.1
20260506023015 69 199 1.7 4.3 0.00 0.00 0.00 50 1014.3
20260506022507 69 207 1.7 3.5 0.00 0.00 0.00 50 1014.2
20260506022007 69 191 1.7 3.5 0.00 0.00 0.00 51 1014.1
20260506021518 69 179 1.7 3.5 0.00 0.00 0.00 50 1014.0
20260506021009 69 202 0.9 5.2 0.00 0.00 0.00 50 1014.0
20260506020507 69 204 1.7 4.3 0.00 0.00 0.00 52 1013.8
20260506020024 69 186 1.7 3.5 0.00 0.00 0.00 50 1013.7
20260506015506 70 213 0.9 6.1 0.00 0.00 0.00 49 1013.6
20260506015008 70 196 1.7 6.1 0.00 0.00 0.00 49 1013.5
20260506014524 70 200 2.6 5.2 0.00 0.00 0.00 50 1013.5
20260506014009 70 187 1.7 5.2 0.00 0.00 0.00 49 1013.8
20260506013511 70 219 1.7 5.2 0.00 0.00 0.00 49 1013.7
20260506013016 70 209 2.6 5.2 0.00 0.00 0.00 49 1013.6
20260506012507 70 192 1.7 4.3 0.00 0.00 0.00 49 1013.6
20260506012009 70 184 1.7 4.3 0.00 0.00 0.00 49 1013.5
20260506011512 70 205 2.6 5.2 0.00 0.00 0.00 49 1013.5
20260506011008 70 204 1.7 5.2 0.00 0.00 0.00 49 1013.5
20260506010508 70 196 1.7 5.2 0.00 0.00 0.00 48 1013.5
20260506010021 70 192 1.7 5.2 0.00 0.00 0.00 48 1013.5
20260506005509 70 200 2.6 5.2 0.00 0.00 0.00 48 1013.4
20260506005007 70 160 1.7 4.3 0.00 0.00 0.00 48 1013.6
20260506004517 70 201 2.6 4.3 0.00 0.00 0.00 48 1013.5
20260506004009 70 197 0.9 3.5 0.00 0.00 0.00 48 1013.6
20260506003510 70 163 1.7 3.5 0.00 0.00 0.00 48 1013.5
20260506003024 71 191 0.9 1.7 0.00 0.00 0.00 47 1013.7
20260506002511 71 191 0.9 2.6 0.00 0.00 0.00 46 1013.7
20260506002007 72 191 0.9 2.6 0.00 0.00 0.00 45 1013.7
20260506001527 72 200 0.9 2.6 0.00 0.00 0.00 45 1013.7
20260506001007 72 215 0.0 2.6 0.00 0.00 0.00 43 1013.8
20260506000507 73 175 0.9 7.0 0.00 0.00 0.00 43 1013.9
20260506000018 73 217 1.7 7.0 0.00 0.00 0.00 43 1013.9
20260505235503 73 223 0.9 6.1 0.00 0.00 0.00 43 1013.7
20260505235008 73 208 2.6 6.1 0.00 0.00 0.00 42 1013.7
20260505234506 73 202 2.6 6.1 0.00 0.00 0.00 41 1013.6
20260505234005 74 217 2.6 6.1 0.00 0.00 0.00 41 1013.7
20260505233505 74 267 2.6 5.2 0.00 0.00 0.00 40 1013.8
20260505233003 74 202 2.6 5.2 0.00 0.00 0.00 41 1013.9
20260505232509 75 222 3.5 7.0 0.00 0.00 0.00 40 1013.9
20260505232005 75 188 3.5 9.6 0.00 0.00 0.00 40 1013.8
20260505231512 74 250 5.2 9.6 0.00 0.00 0.00 39 1013.8
20260505231003 75 201 3.5 7.0 0.00 0.00 0.00 40 1014.0
20260505230503 75 237 3.5 7.0 0.00 0.00 0.00 40 1013.8
20260505230022 75 220 1.7 7.0 0.00 0.00 0.00 40 1013.8
20260505225506 75 225 4.3 7.0 0.00 0.00 0.00 39 1013.6
20260505225002 76 183 3.5 10.4 0.00 0.00 0.00 40 1013.4
20260505224503 76 224 3.5 10.4 0.00 0.00 0.00 40 1013.5
20260505224002 76 242 4.3 7.0 0.00 0.00 0.00 39 1013.4
20260505223505 76 269 2.6 8.7 0.00 0.00 0.00 39 1013.3
20260505223003 76 188 5.2 8.7 0.00 0.00 0.00 37 1013.4
20260505222502 77 196 2.6 7.0 0.00 0.00 0.00 38 1013.5
20260505222009 76 190 2.6 8.7 0.00 0.00 0.00 38 1013.5
20260505221511 76 209 5.2 8.7 0.00 0.00 0.00 37 1013.5
20260505221005 76 232 3.5 6.1 0.00 0.00 0.00 37 1013.5
20260505220505 76 222 1.7 7.8 0.00 0.00 0.00 37 1013.5
20260505220007 76 203 3.5 7.8 0.00 0.00 0.00 36 1013.6
20260505215503 76 184 3.5 11.3 0.00 0.00 0.00 37 1013.5
20260505215003 76 206 6.1 13.0 0.00 0.00 0.00 37 1013.3
20260505214505 77 202 7.0 13.0 0.00 0.00 0.00 35 1013.4
20260505214012 77 180 3.5 9.6 0.00 0.00 0.00 37 1013.2
20260505213502 78 169 5.2 10.4 0.00 0.00 0.00 36 1013.3
20260505213012 78 184 4.3 10.4 0.00 0.00 0.00 35 1013.5
20260505212507 78 203 4.3 9.6 0.00 0.00 0.00 37 1013.3
20260505212003 77 224 6.1 9.6 0.00 0.00 0.00 35 1013.4
20260505211514 78 230 5.2 15.6 0.00 0.00 0.00 35 1013.5
20260505211009 78 213 7.8 15.6 0.00 0.00 0.00 35 1013.7
20260505210504 78 181 3.5 13.9 0.00 0.00 0.00 36 1013.6
20260505210004 78 225 5.2 12.2 0.00 0.00 0.00 36 1013.7
20260505205504 78 207 4.3 13.0 0.00 0.00 0.00 36 1013.7
20260505205009 78 203 7.0 13.9 0.00 0.00 0.00 36 1013.7
20260505204520 77 195 6.1 13.9 0.00 0.00 0.00 36 1013.5
20260505204003 78 192 7.0 11.3 0.00 0.00 0.00 37 1013.8
20260505203508 78 214 2.6 10.4 0.00 0.00 0.00 37 1013.9
20260505203018 77 154 6.1 11.3 0.00 0.00 0.00 37 1014.0
20260505202503 78 171 5.2 11.3 0.00 0.00 0.00 37 1014.0
20260505202007 77 240 5.2 9.6 0.00 0.00 0.00 38 1014.0
20260505201515 78 193 6.1 9.6 0.00 0.00 0.00 35 1014.2
20260505201009 78 237 5.2 8.7 0.00 0.00 0.00 35 1014.2
20260505200506 78 178 3.5 10.4 0.00 0.00 0.00 36 1014.2
20260505200005 78 264 2.6 10.4 0.00 0.00 0.00 38 1014.5
20260505195506 77 221 4.3 9.6 0.00 0.00 0.00 37 1014.5
20260505195003 78 179 4.3 9.6 0.00 0.00 0.00 38 1014.6
20260505194521 78 269 3.5 10.4 0.00 0.00 0.00 39 1014.7
20260505194011 77 203 6.1 10.4 0.00 0.00 0.00 41 1014.8
20260505193504 77 226 5.2 9.6 0.00 0.00 0.00 38 1014.8
20260505193012 77 163 5.2 12.2 0.00 0.00 0.00 38 1015.0
20260505192008 77 212 3.5 11.3 0.00 0.00 0.00 38 1015.1
20260505191508 77 234 5.2 13.0 0.00 0.00 0.00 40 1015.1
20260505191003 77 180 6.1 13.9 0.00 0.00 0.00 38 1015.1
20260505190507 76 184 6.1 13.9 0.00 0.00 0.00 40 1015.1
20260505190021 77 167 6.1 13.9 0.00 0.00 0.00 42 1015.1
20260505185506 76 214 4.3 13.0 0.00 0.00 0.00 39 1015.1
20260505185006 76 238 5.2 13.0 0.00 0.00 0.00 39 1015.2
20260505184518 77 259 5.2 11.3 0.00 0.00 0.00 39 1015.2
20260505184010 76 242 5.2 13.0 0.00 0.00 0.00 40 1015.3
20260505183505 76 223 6.1 13.9 0.00 0.00 0.00 39 1015.3
20260505183013 76 216 8.7 14.8 0.00 0.00 0.00 36 1015.5
20260505182509 76 190 6.1 14.8 0.00 0.00 0.00 41 1015.3
20260505182007 75 236 4.3 12.2 0.00 0.00 0.00 42 1015.3
20260505181518 75 227 7.0 12.2 0.00 0.00 0.00 41 1015.4
20260505181010 75 219 7.0 11.3 0.00 0.00 0.00 40 1015.5
20260505180507 76 140 5.2 11.3 0.00 0.00 0.00 41 1015.7
20260505180038 76 216 7.0 13.0 0.00 0.00 0.00 39 1015.9
20260505175510 75 128 4.3 13.0 0.00 0.00 0.00 42 1015.9
20260505175003 75 165 6.1 11.3 0.00 0.00 0.00 41 1016.2
20260505174516 75 157 7.0 11.3 0.00 0.00 0.00 42 1016.1
20260505174007 75 202 5.2 13.0 0.00 0.00 0.00 41 1016.1
20260505173510 74 158 4.3 13.0 0.00 0.00 0.00 42 1016.3
20260505173023 75 226 6.1 12.2 0.00 0.00 0.00 42 1016.4
20260505172510 74 222 6.1 10.4 0.00 0.00 0.00 41 1016.4
20260505172012 74 227 7.0 13.0 0.00 0.00 0.00 42 1016.4
20260505171529 75 242 7.0 13.0 0.00 0.00 0.00 42 1016.4
20260505171009 75 189 5.2 13.9 0.00 0.00 0.00 43 1016.4
20260505170505 74 232 7.0 13.9 0.00 0.00 0.00 43 1016.3
20260505170025 74 169 6.1 11.3 0.00 0.00 0.00 41 1016.5
20260505165508 74 187 5.2 11.3 0.00 0.00 0.00 45 1016.4
20260505165005 75 225 5.2 11.3 0.00 0.00 0.00 43 1016.4
20260505164516 74 147 6.1 11.3 0.00 0.00 0.00 44 1016.5
20260505164010 73 219 4.3 14.8 0.00 0.00 0.00 44 1016.5
20260505163513 74 221 9.6 14.8 0.00 0.00 0.00 42 1016.5
20260505163028 74 227 6.1 13.0 0.00 0.00 0.00 43 1016.4
20260505162506 74 196 6.1 14.8 0.00 0.00 0.00 42 1016.2
20260505162009 74 183 5.2 14.8 0.00 0.00 0.00 44 1016.3
20260505161518 74 200 7.0 13.9 0.00 0.00 0.00 43 1016.4
20260505161007 73 209 7.8 13.0 0.00 0.00 0.00 43 1016.3
20260505160507 73 227 6.1 12.2 0.00 0.00 0.00 42 1016.3
20260505153023 73 186 8.7 13.9 0.00 0.00 0.00 47 1016.5
20260505152513 73 264 6.1 11.3 0.00 0.00 0.00 48 1016.7
20260505152008 73 216 4.3 12.2 0.00 0.00 0.00 49 1016.5
20260505151520 73 140 5.2 12.2 0.00 0.00 0.00 49 1016.5
20260505151011 72 183 3.5 8.7 0.00 0.00 0.00 50 1016.5
20260505150507 72 139 4.3 8.7 0.00 0.00 0.00 53 1016.3
20260505140513 69 22 0.9 3.5 0.00 0.00 0.00 64 1016.2
20260505125013 55 277 0.0 1.7 0.00 0.00 0.00 89 1015.8
20260505124529 54 277 0.0 0.9 0.00 0.00 0.00 90 1015.9
20260505124013 53 277 0.0 0.9 0.00 0.00 0.00 90 1015.8
20260505123512 52 277 0.0 0.0 0.00 0.00 0.00 90 1015.7
20260505123032 51 277 0.0 0.0 0.00 0.00 0.00 90 1015.7
20260505122509 50 277 0.0 0.0 0.00 0.00 0.00 90 1015.7
20260505122011 50 277 0.0 0.0 0.00 0.00 0.00 90 1015.5
20260505121526 50 276 0.0 0.0 0.00 0.00 0.00 90 1015.5
20260505121009 49 277 0.0 0.0 0.00 0.00 0.00 89 1015.5
20260505120506 49 277 0.0 1.7 0.00 0.00 0.00 89 1015.5
20260505120029 49 277 0.0 1.7 0.00 0.00 0.00 89 1015.5
20260505115508 49 277 0.0 1.7 0.00 0.00 0.00 89 1015.5
20260505115011 48 277 0.0 0.9 0.00 0.00 0.00 89 1015.6
20260505114525 48 194 0.0 0.0 0.00 0.00 0.00 89 1015.5
20260505114010 48 194 0.0 0.0 0.00 0.00 0.00 89 1015.3
20260505113507 47 194 0.0 0.0 0.00 0.00 0.00 89 1015.1
20260505113025 47 194 0.0 0.0 0.00 0.00 0.00 89 1015.1
20260505112514 47 194 0.0 0.0 0.00 0.00 0.00 88 1015.0
20260505112003 47 194 0.0 0.0 0.00 0.00 0.00 88 1015.0
20260505111511 47 194 0.0 0.0 0.00 0.00 0.00 88 1015.0
20260505111004 47 192 0.0 0.0 0.00 0.00 0.00 88 1014.9
20260505110504 47 192 0.0 0.0 0.00 0.00 0.00 88 1015.0
20260505102006 47 192 0.0 0.0 0.00 0.00 0.00 87 1014.8
20260505101525 47 192 0.0 0.0 0.00 0.00 0.00 87 1014.8
20260505101006 48 192 0.0 0.9 0.00 0.00 0.00 87 1014.8
20260505100507 48 192 0.0 0.9 0.00 0.00 0.00 88 1014.9
20260505100021 48 192 0.0 0.0 0.00 0.00 0.00 87 1014.8
20260505095506 48 192 0.0 0.0 0.00 0.00 0.00 88 1015.0
20260505095003 48 192 0.0 0.9 0.00 0.00 0.00 88 1015.0
20260505094506 48 192 0.0 1.7 0.00 0.00 0.00 88 1015.0
20260505094006 48 192 0.0 1.7 0.00 0.00 0.00 88 1015.0
20260505093503 48 192 0.0 1.7 0.00 0.00 0.00 88 1014.9
20260505093025 48 192 0.0 1.7 0.00 0.00 0.00 88 1014.7
20260505092508 48 192 0.0 1.7 0.00 0.00 0.00 88 1014.6
20260505092003 48 192 0.0 1.7 0.00 0.00 0.00 88 1014.7
20260505091528 48 192 0.0 1.7 0.00 0.00 0.00 88 1014.7
20260505091005 48 192 0.0 1.7 0.00 0.00 0.00 87 1014.9
20260505090507 48 192 0.0 1.7 0.00 0.00 0.00 87 1014.9
20260505090019 48 192 0.0 0.0 0.00 0.00 0.00 87 1015.0
20260505085504 48 192 0.0 0.0 0.00 0.00 0.00 87 1015.0
20260505085007 48 192 0.0 0.0 0.00 0.00 0.00 86 1015.0
20260505084516 48 192 0.0 0.0 0.00 0.00 0.00 86 1015.0
20260505084003 48 192 0.0 0.0 0.00 0.00 0.00 86 1015.0
20260505083507 48 192 0.0 0.0 0.00 0.00 0.00 86 1015.2
20260505083013 48 192 0.0 0.0 0.00 0.00 0.00 86 1015.2
20260505082510 48 192 0.0 1.7 0.00 0.00 0.00 86 1015.2
20260505082007 48 192 0.0 1.7 0.00 0.00 0.00 86 1015.1
20260505081511 48 192 0.0 1.7 0.00 0.00 0.00 85 1015.1
20260505081007 48 192 0.0 0.0 0.00 0.00 0.00 85 1015.0
20260505080505 49 192 0.0 0.0 0.00 0.00 0.00 85 1015.0
20260505080024 49 192 0.0 0.0 0.00 0.00 0.00 85 1015.1
20260505075507 49 192 0.0 0.0 0.00 0.00 0.00 85 1015.1
20260505075008 49 192 0.0 0.0 0.00 0.00 0.00 84 1015.1
20260505074524 49 192 0.0 0.0 0.00 0.00 0.00 84 1015.1
20260505074009 49 192 0.0 0.0 0.00 0.00 0.00 84 1015.1
20260505073504 49 192 0.0 0.0 0.00 0.00 0.00 84 1015.1
20260505073033 49 192 0.0 0.0 0.00 0.00 0.00 84 1015.0
20260505072507 50 192 0.0 0.0 0.00 0.00 0.00 83 1015.1
20260505072004 50 192 0.0 0.0 0.00 0.00 0.00 83 1015.1
20260505071518 50 192 0.0 0.0 0.00 0.00 0.00 83 1015.1
20260505071003 50 192 0.0 1.7 0.00 0.00 0.00 83 1015.1
20260505070503 50 192 0.9 1.7 0.00 0.00 0.00 82 1015.1
20260505070015 50 192 0.0 0.0 0.00 0.00 0.00 82 1015.1
20260505065510 50 192 0.0 0.0 0.00 0.00 0.00 82 1015.1
20260505065007 51 192 0.0 0.9 0.00 0.00 0.00 82 1015.1
20260505064517 51 192 0.0 1.7 0.00 0.00 0.00 82 1015.1
20260505064009 51 192 0.0 1.7 0.00 0.00 0.00 81 1015.0
20260505063505 51 192 0.0 1.7 0.00 0.00 0.00 80 1015.1
20260505063010 51 192 0.0 1.7 0.00 0.00 0.00 80 1015.1
20260505062507 51 192 0.0 1.7 0.00 0.00 0.00 80 1015.2
20260505062010 51 192 0.0 1.7 0.00 0.00 0.00 80 1015.2
20260505061533 52 192 0.9 1.7 0.00 0.00 0.00 78 1015.3
20260505061003 52 192 0.0 0.0 0.00 0.00 0.00 78 1015.2
20260505060510 52 192 0.0 0.0 0.00 0.00 0.00 78 1015.2
20260505060022 53 192 0.0 0.0 0.00 0.00 0.00 77 1015.2